Surface/Precipitation History
03/22/2017 14:07  to  3/23/2017 14:07
Change End Date:
Date/Time
(MDT)
Sf
Temp Chem Water Layer Surface Precipitation
Sfc Pvt Sub Frz Factor Pct Dpth DpthThk IcePct Cond Salin FI Type Intens Accum Rate
03/23/2017 13:45 Dry 58.3F - 35F - - - - - - 0 mhos 0 - None None - -
03/23/2017 13:40 Dry 55.4F - 35F - - - - - - 0 mhos 0 - None None - -
03/23/2017 13:30 Dry 55.2F - 35F - - - - - - 0 mhos 0 - None None - -
03/23/2017 13:30 Dry 55.2F - 35F - - - - - - 0 mhos 0 - None None - -
03/23/2017 13:20 Dry 57.6F - 35F - - - - - - 0 mhos 1 - None None - -
03/23/2017 13:15 Dry 60.1F - 35F - - - - - - 0 mhos 4 - None None - -
03/23/2017 13:10 Dry 59.4F - 35F - - - - - - 0 mhos 8 - None None - -
03/23/2017 13:00 Dry 53.2F - 35F - - - - - - 0 mhos 16 - None None - -
03/23/2017 13:00 Dry 53.2F - 35F - - - - - - 0 mhos 16 - None None - -
03/23/2017 12:50 Dry 51.6F - 35F - - - - - - 0 mhos 28 - None None - -
03/23/2017 12:45 Dry 53.1F - 35F - - - - - - 0 mhos 36 - None None - -
03/23/2017 12:40 Dry 53.8F - 35F - - - - - - 1 mhos 47 - None None - -
03/23/2017 12:30 Dry 52.0F - 35F - - - - - - 1 mhos 74 - None None - -
03/23/2017 12:30 Dry 52.0F - 35F - - - - - - 1 mhos 74 - None None - -
03/23/2017 12:20 Dry 53.8F - 35F - - - - - - 1 mhos 104 - None None - -
Date/Time
(MDT)
Sf
Temp Chem Water Layer Surface Precipitation
Sfc Pvt Sub Frz Factor Pct Dpth DpthThk IcePct Cond Salin FI Type Intens Accum Rate
03/23/2017 12:15 Trace Moisture 57.4F - 35F - 5 - - - - 2 mhos 116 - None None - -
03/23/2017 12:10 Dry 53.8F - 35F - - - - - - 2 mhos 131 - None None - -
03/23/2017 12:00 Dry 55.9F - 35F - - - - - - 2 mhos 154 - None None - -
03/23/2017 12:00 Dry 55.9F - 35F - - - - - - 2 mhos 154 - None None - -
03/23/2017 11:50 Wet 49.6F - 35F 32F 20 1% 0.00 in - 0% 2 mhos 164 - None None - -
03/23/2017 11:45 Wet 50.2F - 35F 32F 10 1% 0.00 in - 0% 2 mhos 178 - None None - -
03/23/2017 11:40 Wet 51.6F - 35F 32F 15 1% 0.00 in - 0% 2 mhos 186 - None None - -
03/23/2017 11:30 Wet 47.7F - 35F 32F 25 1% 0.00 in - 0% 2 mhos 199 - None None - -
03/23/2017 11:30 Wet 47.7F - 35F 32F 25 1% 0.00 in - 0% 2 mhos 199 - None None - -
03/23/2017 11:19 Wet 50.0F - 35F 32F 35 1% 0.00 in - 0% 3 mhos 210 - None None - -
03/23/2017 11:15 Wet 48.6F - 35F 32F 40 1% 0.00 in - 0% 3 mhos 219 - None None - -
03/23/2017 11:09 Wet 47.1F - 35F 32F 35 1% 0.00 in - 0% 3 mhos 226 - None None - -
03/23/2017 11:00 Wet 41.9F - 35F 32F 55 1% 0.00 in - 0% 2 mhos 216 - None None - -
03/23/2017 10:59 Wet 41.9F - 35F 32F 55 1% 0.00 in - 0% 2 mhos 216 - None None - -
03/23/2017 10:49 Wet 41.4F - 35F 32F 45 1% 0.00 in - 0% 2 mhos 227 - None None - -
Date/Time
(MDT)
Sf
Temp Chem Water Layer Surface Precipitation
Sfc Pvt Sub Frz Factor Pct Dpth DpthThk IcePct Cond Salin FI Type Intens Accum Rate
03/23/2017 10:39 Wet 40.1F - 35F 32F 40 1% 0.00 in - 0% 2 mhos 213 - None None - -
03/23/2017 10:30 Wet 38.7F - 36F 32F 65 1% 0.00 in - 0% 2 mhos 193 - Yes - - -
03/23/2017 10:29 Wet 38.7F - 36F 32F 65 1% 0.00 in - 0% 2 mhos 193 - None None - -
03/23/2017 10:19 Wet 37.9F - 36F 32F 65 1% 0.00 in - 0% 2 mhos 188 - None None - -
03/23/2017 10:15 Wet 37.6F - 36F 32F 75 1% 0.00 in - 0% 2 mhos 177 - Yes - - -
03/23/2017 10:09 Wet 37.4F - 36F 32F 55 1% 0.00 in - 0% 3 mhos 248 - None None - -
03/23/2017 10:00 Wet 37.0F - 36F 32F 70 1% 0.00 in - 0% 2 mhos 222 - None None - -
03/23/2017 09:59 Wet 37.0F - 36F 32F 70 1% 0.00 in - 0% 2 mhos 222 - None None - -
03/23/2017 09:49 Wet 36.1F - 36F 32F 55 1% 0.00 in - 0% 3 mhos 258 - Yes - - -
03/23/2017 09:45 Wet 36.0F - 36F 32F 50 1% 0.00 in - 0% 3 mhos 300 - Yes - - -
03/23/2017 09:39 Wet 35.6F - 36F 32F 50 1% 0.00 in - 0% 3 mhos 290 - None None - -
03/23/2017 09:30 Wet 35.4F - 36F 32F 45 1% 0.00 in - 0% 3 mhos 280 - Yes - - -
03/23/2017 09:29 Wet 35.4F - 36F 32F 45 1% 0.00 in - 0% 3 mhos 277 - Yes - - -
03/23/2017 09:19 Wet 35.4F - 36F 32F 50 1% 0.00 in - 0% 3 mhos 273 - None None - -
03/23/2017 09:15 Wet 35.4F - 36F 32F 50 1% 0.00 in - 0% 3 mhos 264 - None None - -
Date/Time
(MDT)
Sf
Temp Chem Water Layer Surface Precipitation
Sfc Pvt Sub Frz Factor Pct Dpth DpthThk IcePct Cond Salin FI Type Intens Accum Rate
03/23/2017 09:09 Wet 35.4F - 36F 32F 55 1% 0.00 in - 0% 2 mhos 252 - None None - -
03/23/2017 09:00 Wet 35.2F - 36F 32F 45 1% 0.00 in - 0% 2 mhos 237 - Yes - - -
03/23/2017 08:59 Wet 35.2F - 36F 32F 45 1% 0.00 in - 0% 2 mhos 240 - Yes - - -
03/23/2017 08:49 Wet 35.1F - 36F 32F 45 1% 0.00 in - 0% 2 mhos 236 - None None - -
03/23/2017 08:45 Wet 34.9F - 36F 32F 50 1% 0.00 in - 0% 2 mhos 238 - None None - -
03/23/2017 08:39 Wet 34.9F - 36F 32F 60 1% 0.00 in - 0% 2 mhos 234 - None None - -
03/23/2017 08:30 Wet 34.9F - 36F 32F 85 1% 0.00 in - 0% 2 mhos 222 - None None - -
03/23/2017 08:29 Wet 34.9F - 36F 32F 65 1% 0.00 in - 0% 2 mhos 208 - None None - -
03/23/2017 08:18 Wet 34.9F - 36F 32F 55 1% 0.00 in - 0% 2 mhos 220 - None None - -
03/23/2017 08:08 Wet 34.9F - 36F 32F 70 1% 0.00 in - 0% 2 mhos 201 - None None - -
03/23/2017 08:00 Wet 34.9F - 36F 32F 45 1% 0.00 in - 0% 2 mhos 182 - None None - -
03/23/2017 07:58 Wet 34.9F - 36F 32F 50 1% 0.00 in - 0% 2 mhos 178 - None None - -
03/23/2017 07:48 Wet 34.9F - 36F 32F 95 1% 0.00 in - 0% 2 mhos 166 - None None - -
03/23/2017 07:45 Wet 34.9F - 36F 32F 95 1% 0.00 in - 0% 2 mhos 216 - None None - -
03/23/2017 07:38 Wet 34.9F - 36F 32F 70 1% 0.00 in - 0% 2 mhos 221 - None None - -
Date/Time
(MDT)
Sf
Temp Chem Water Layer Surface Precipitation
Sfc Pvt Sub Frz Factor Pct Dpth DpthThk IcePct Cond Salin FI Type Intens Accum Rate
03/23/2017 07:30 Wet 34.9F - 36F 32F 85 1% 0.00 in - 0% 2 mhos 223 - None None - -
03/23/2017 07:28 Wet 34.9F - 36F 32F 90 1% 0.00 in - 0% 2 mhos 218 - None None - -
03/23/2017 07:18 Wet 34.9F - 36F 32F 40 1% 0.00 in - 0% 2 mhos 236 - Yes - - -
03/23/2017 07:08 Wet 34.9F - 36F 32F 50 1% 0.00 in - 0% 2 mhos 230 - None None - -
03/23/2017 06:58 Wet 34.9F - 36F 32F 55 1% 0.00 in - 0% 2 mhos 219 - None None - -
03/23/2017 06:48 Wet 34.9F - 36F 32F 50 1% 0.00 in - 0% 2 mhos 227 - None None - -
03/23/2017 06:38 Wet 34.9F - 36F 32F 60 1% 0.00 in - 0% 2 mhos 220 - None None - -
03/23/2017 06:30 Wet 34.9F - 36F 32F 70 1% 0.00 in - 0% 2 mhos 214 - None None - -
03/23/2017 06:28 Wet 35.1F - 36F 32F 75 1% 0.00 in - 0% 2 mhos 214 - None None - -
03/23/2017 06:18 Wet 35.2F - 36F 32F 70 1% 0.00 in - 0% 2 mhos 199 - None None - -
03/23/2017 06:15 Wet 35.2F - 36F 32F 70 1% 0.00 in - 0% 2 mhos 200 - None None - -
03/23/2017 06:08 Wet 35.4F - 36F 32F 45 1% 0.00 in - 0% 2 mhos 190 - None None - -
03/23/2017 06:00 Wet 35.2F - 36F 32F 50 1% 0.00 in - 0% 2 mhos 189 - None None - -
03/23/2017 05:58 Wet 35.4F - 36F 32F 50 1% 0.00 in - 0% 2 mhos 187 - None None - -
03/23/2017 05:48 Wet 35.4F - 36F 32F 65 1% 0.00 in - 0% 2 mhos 181 - None None - -
Date/Time
(MDT)
Sf
Temp Chem Water Layer Surface Precipitation
Sfc Pvt Sub Frz Factor Pct Dpth DpthThk IcePct Cond Salin FI Type Intens Accum Rate
03/23/2017 05:45 Wet 35.4F - 36F 32F 75 1% 0.00 in - 0% 2 mhos 184 - None None - -
03/23/2017 05:38 Wet 35.4F - 36F 32F 40 1% 0.00 in - 0% 2 mhos 163 - None None - -
03/23/2017 05:30 Wet 35.4F - 36F 32F 60 1% 0.00 in - 0% 2 mhos 166 - None None - -
03/23/2017 05:28 Wet 35.6F - 36F 32F 65 1% 0.00 in - 0% 2 mhos 159 - None None - -
03/23/2017 05:17 Wet 35.8F - 36F 32F 85 1% 0.00 in - 0% 2 mhos 163 - None None - -
03/23/2017 05:15 Wet 35.8F - 36F 32F 35 1% 0.00 in - 0% 1 mhos 137 - None None - -
03/23/2017 05:07 Wet 35.8F - 36F 32F 35 0% 0.00 in - 0% 1 mhos 127 - None None - -
03/23/2017 05:00 Wet 35.6F - 36F 32F 35 0% 0.00 in - 0% 1 mhos 117 - Yes - - -
03/23/2017 04:57 Wet 35.6F - 36F 32F 40 0% 0.00 in - 0% 1 mhos 114 - Yes - - -
03/23/2017 04:47 Wet 35.8F - 36F 32F 95 0% 0.00 in - 0% 1 mhos 95 - Yes - - -
03/23/2017 04:45 Wet 35.8F - 36F 32F 95 0% 0.00 in - 0% 1 mhos 106 - Yes - - -
03/23/2017 04:37 Wet 35.8F - 36F 32F 95 0% 0.00 in - 0% 0 mhos 22 - None None - -
03/23/2017 04:30 Wet 35.6F - 36F 32F 5 0% 0.00 in - 0% 0 mhos 16 - None None - -
03/23/2017 04:27 Wet 35.8F - 37F 32F 5 0% 0.00 in - 0% 0 mhos 22 - None None - -
03/23/2017 04:17 Wet 35.6F - 36F 32F 5 0% 0.00 in - 0% 0 mhos 22 - None None - -
Date/Time
(MDT)
Sf
Temp Chem Water Layer Surface Precipitation
Sfc Pvt Sub Frz Factor Pct Dpth DpthThk IcePct Cond Salin FI Type Intens Accum Rate
03/23/2017 04:15 Wet 35.6F - 36F 32F 5 0% 0.00 in - 0% 0 mhos 21 - None None - -
03/23/2017 04:07 Wet 35.6F - 37F 32F 5 0% 0.00 in - 0% 0 mhos 21 - None None - -
03/23/2017 04:00 Wet 36.0F - 37F 32F 10 0% 0.00 in - 0% 0 mhos 22 - Yes - - -
03/23/2017 03:57 Wet 36.1F - 37F 32F 10 0% 0.00 in - 0% 0 mhos 22 - Yes - - -
03/23/2017 03:47 Wet 36.1F - 37F 32F 5 0% 0.00 in - 0% 0 mhos 22 - None None - -
03/23/2017 03:45 Wet 36.1F - 37F 32F 5 0% 0.00 in - 0% 0 mhos 22 - Yes - - -
03/23/2017 03:37 Wet 36.1F - 37F 32F 5 0% 0.00 in - 0% 0 mhos 22 - None None - -
03/23/2017 03:30 Wet 36.1F - 37F 32F 5 0% 0.00 in - 0% 0 mhos 22 - None None - -
03/23/2017 03:27 Wet 36.1F - 37F 32F 5 0% 0.00 in - 0% 0 mhos 22 - None None - -
03/23/2017 03:17 Wet 36.0F - 37F 32F 5 0% 0.00 in - 0% 0 mhos 21 - None None - -
03/23/2017 03:15 Wet 36.0F - 37F 32F 5 0% 0.00 in - 0% 0 mhos 22 - None None - -
03/23/2017 03:07 Wet 36.3F - 37F 32F 10 0% 0.00 in - 0% 0 mhos 21 - Yes - - -
03/23/2017 03:00 Wet 36.7F - 37F 32F 10 0% 0.00 in - 0% 0 mhos 26 - Yes - - -
03/23/2017 02:57 Wet 36.7F - 37F 32F 10 0% 0.00 in - 0% 0 mhos 27 - Yes - - -
03/23/2017 02:47 Wet 36.7F - 37F 32F 10 0% 0.00 in - 0% 0 mhos 26 - Yes - - -
Date/Time
(MDT)
Sf
Temp Chem Water Layer Surface Precipitation
Sfc Pvt Sub Frz Factor Pct Dpth DpthThk IcePct Cond Salin FI Type Intens Accum Rate
03/23/2017 02:45 Wet 36.7F - 37F 32F 15 0% 0.00 in - 0% 0 mhos 26 - Yes - - -
03/23/2017 02:37 Wet 36.7F - 37F 32F 5 0% 0.00 in - 0% 0 mhos 32 - Yes - - -
03/23/2017 02:30 Wet 36.7F - 37F 32F 5 0% 0.00 in - 0% 0 mhos 32 - Yes - - -
03/23/2017 02:26 Wet 36.7F - 37F 32F 5 0% 0.00 in - 0% 0 mhos 32 - Yes - - -
03/23/2017 02:16 Wet 36.7F - 37F 32F 5 0% 0.00 in - 0% 0 mhos 32 - None None - -
03/23/2017 02:15 Wet 36.5F - 37F 32F 5 0% 0.00 in - 0% 0 mhos 33 - None None - -
03/23/2017 02:06 Wet 36.7F - 37F 32F 5 0% 0.00 in - 0% 0 mhos 32 - None None - -
03/23/2017 02:00 Wet 36.7F - 37F 32F 5 0% 0.00 in - 0% 0 mhos 32 - None None - -
03/23/2017 01:56 Wet 36.7F - 37F 32F 5 0% 0.00 in - 0% 0 mhos 32 - None None - -
03/23/2017 01:46 Wet 36.9F - 37F 32F 5 0% 0.00 in - 0% 0 mhos 32 - None None - -
03/23/2017 01:45 Wet 36.9F - 37F 32F 5 0% 0.00 in - 0% 0 mhos 32 - None None - -
03/23/2017 01:36 Wet 36.9F - 37F 32F 5 0% 0.00 in - 0% 0 mhos 23 - None None - -
03/23/2017 01:26 Wet 36.9F - 37F 32F 5 0% 0.00 in - 0% 0 mhos 32 - None None - -
03/23/2017 01:16 Wet 36.9F - 37F 32F 5 0% 0.00 in - 0% 0 mhos 23 - None None - -
03/23/2017 01:15 Wet 36.9F - 37F 32F 5 0% 0.00 in - 0% 0 mhos 31 - Yes - - -
Date/Time
(MDT)
Sf
Temp Chem Water Layer Surface Precipitation
Sfc Pvt Sub Frz Factor Pct Dpth DpthThk IcePct Cond Salin FI Type Intens Accum Rate
03/23/2017 01:06 Wet 37.0F - 37F 32F 5 0% 0.00 in - 0% 0 mhos 30 - None None - -
03/23/2017 01:00 Wet 37.0F - 37F 32F 5 0% 0.00 in - 0% 0 mhos 30 - None None - -
03/23/2017 00:56 Wet 37.0F - 37F 32F 5 0% 0.00 in - 0% 0 mhos 30 - None None - -
03/23/2017 00:46 Wet 37.2F - 37F 32F 5 0% 0.00 in - 0% 0 mhos 30 - Yes - - -
03/23/2017 00:45 Wet 37.2F - 37F 32F 5 0% 0.00 in - 0% 0 mhos 30 - Yes - - -
03/23/2017 00:36 Wet 37.2F - 37F 32F 5 0% 0.00 in - 0% 0 mhos 29 - Yes - - -
03/23/2017 00:31 Wet 37.4F - 37F 32F 5 0% 0.00 in - 0% 0 mhos 29 - None None - -
03/23/2017 00:26 Wet 37.4F - 37F 32F 5 0% 0.00 in - 0% 0 mhos 29 - None None - -
03/23/2017 00:16 Wet 37.4F - 37F 32F 5 0% 0.00 in - 0% 0 mhos 22 - None None - -
03/23/2017 00:15 Wet 37.4F - 37F 32F 5 0% 0.00 in - 0% 0 mhos 29 - None None - -
03/23/2017 00:06 Wet 37.4F - 37F 32F 5 0% 0.00 in - 0% 0 mhos 29 - None None - -
03/23/2017 00:00 Wet 37.4F - 37F 32F 5 0% 0.00 in - 0% 0 mhos 29 - None None - -
03/22/2017 23:56 Wet 37.4F - 37F 32F 5 0% 0.00 in - 0% 0 mhos 29 - None None - -
03/22/2017 23:46 Wet 37.6F - 37F 32F 5 0% 0.00 in - 0% 0 mhos 28 - None None - -
03/22/2017 23:45 Wet 37.6F - 37F 32F 5 0% 0.00 in - 0% 0 mhos 28 - None None - -
Date/Time
(MDT)
Sf
Temp Chem Water Layer Surface Precipitation
Sfc Pvt Sub Frz Factor Pct Dpth DpthThk IcePct Cond Salin FI Type Intens Accum Rate
03/22/2017 23:36 Wet 37.6F - 37F 32F 5 0% 0.00 in - 0% 0 mhos 28 - None None - -
03/22/2017 23:30 Wet 37.6F - 37F 32F 5 0% 0.00 in - 0% 0 mhos 27 - None None - -
03/22/2017 23:26 Wet 37.6F - 37F 32F 5 0% 0.00 in - 0% 0 mhos 27 - None None - -
03/22/2017 23:16 Wet 37.8F - 37F 32F 5 0% 0.00 in - 0% 0 mhos 27 - None None - -
03/22/2017 23:15 Wet 37.8F - 37F 32F 5 0% 0.00 in - 0% 0 mhos 27 - None None - -
03/22/2017 23:05 Wet 37.8F - 37F 32F 5 0% 0.00 in - 0% 0 mhos 26 - None None - -
03/22/2017 23:00 Wet 37.9F - 37F 32F 5 0% 0.00 in - 0% 0 mhos 26 - None None - -
03/22/2017 22:55 Wet 38.1F - 37F 32F 5 0% 0.00 in - 0% 0 mhos 26 - None None - -
03/22/2017 22:45 Wet 38.3F - 37F 32F 5 0% 0.00 in - 0% 0 mhos 25 - None None - -
03/22/2017 22:45 Wet 38.3F - 37F 32F 5 0% 0.00 in - 0% 0 mhos 25 - None None - -
03/22/2017 22:35 Wet 38.3F - 37F 32F 5 0% 0.00 in - 0% 0 mhos 25 - Yes - - -
03/22/2017 22:30 Wet 38.5F - 37F 32F 5 0% 0.00 in - 0% 0 mhos 24 - None None - -
03/22/2017 22:25 Wet 38.5F - 37F 32F 5 0% 0.00 in - 0% 0 mhos 24 - None None - -
03/22/2017 22:15 Wet 38.7F - 37F 32F 5 0% 0.00 in - 0% 0 mhos 23 - None None - -
03/22/2017 22:05 Wet 38.7F - 37F 32F 5 0% 0.00 in - 0% 0 mhos 23 - None None - -
Date/Time
(MDT)
Sf
Temp Chem Water Layer Surface Precipitation
Sfc Pvt Sub Frz Factor Pct Dpth DpthThk IcePct Cond Salin FI Type Intens Accum Rate
03/22/2017 21:55 Wet 38.8F - 37F 32F 5 0% 0.00 in - 0% 0 mhos 21 - None None - -
03/22/2017 21:45 Wet 39.0F - 37F 32F 10 0% 0.00 in - 0% 0 mhos 20 - None None - -
03/22/2017 21:45 Wet 39.0F - 37F 32F 10 0% 0.00 in - 0% 0 mhos 20 - None None - -
03/22/2017 21:35 Wet 39.4F - 37F 32F 5 0% 0.00 in - 0% 0 mhos 20 - None None - -
03/22/2017 21:30 Wet 39.6F - 37F 32F 10 0% 0.00 in - 0% 0 mhos 19 - None None - -
03/22/2017 21:25 Wet 39.7F - 37F 32F 10 0% 0.00 in - 0% 0 mhos 20 - None None - -
03/22/2017 21:15 Wet 39.9F - 37F 32F 10 0% 0.00 in - 0% 0 mhos 19 - Yes - - -
03/22/2017 21:05 Wet 40.1F - 37F 32F 10 0% 0.00 in - 0% 0 mhos 19 - Yes - - -
03/22/2017 21:00 Wet 40.1F - 37F 32F 10 0% 0.00 in - 0% 0 mhos 18 - Yes - - -
03/22/2017 20:55 Wet 40.3F - 37F 32F 10 0% 0.00 in - 0% 0 mhos 18 - Yes - - -
03/22/2017 20:45 Wet 40.6F - 37F 32F 15 0% 0.00 in - 0% 0 mhos 20 - Yes - - -
03/22/2017 20:45 Wet 40.6F - 37F 32F 15 0% 0.00 in - 0% 0 mhos 20 - Yes - - -
03/22/2017 20:35 Wet 40.8F - 37F 32F 15 0% 0.00 in - 0% 0 mhos 22 - Yes - - -
03/22/2017 20:30 Wet 41.0F - 37F 32F 15 0% 0.00 in - 0% 0 mhos 24 - Yes - - -
03/22/2017 20:25 Wet 41.2F - 37F 32F 15 0% 0.00 in - 0% 0 mhos 25 - Yes - - -
Date/Time
(MDT)
Sf
Temp Chem Water Layer Surface Precipitation
Sfc Pvt Sub Frz Factor Pct Dpth DpthThk IcePct Cond Salin FI Type Intens Accum Rate
03/22/2017 20:15 Wet 41.2F - 37F 32F 25 0% 0.00 in - 0% 0 mhos 26 - Yes - - -
03/22/2017 20:14 Wet 41.2F - 37F 32F 25 0% 0.00 in - 0% 0 mhos 26 - Yes - - -
03/22/2017 20:04 Wet 41.4F - 37F 32F 15 0% 0.00 in - 0% 0 mhos 25 - Yes - - -
03/22/2017 20:00 Wet 41.5F - 37F 32F 20 0% 0.00 in - 0% 0 mhos 25 - Yes - - -
03/22/2017 19:54 Wet 41.7F - 37F 32F 25 0% 0.00 in - 0% 0 mhos 24 - Yes - - -
03/22/2017 19:45 Wet 42.1F - 37F 32F 15 0% 0.00 in - 0% 0 mhos 25 - Yes - - -
03/22/2017 19:44 Wet 42.1F - 37F 32F 15 0% 0.00 in - 0% 0 mhos 25 - Yes - - -
03/22/2017 19:34 Wet 42.4F - 37F 32F 15 0% 0.00 in - 0% 0 mhos 25 - Yes - - -
03/22/2017 19:30 Wet 42.4F - 37F 32F 30 0% 0.00 in - 0% 0 mhos 25 - Yes - - -
03/22/2017 19:24 Wet 42.6F - 37F 32F 25 0% 0.00 in - 0% 0 mhos 23 - Yes - - -
03/22/2017 19:15 Wet 43.0F - 37F 32F 35 0% 0.00 in - 0% 0 mhos 16 - Yes - - -
03/22/2017 19:14 Wet 43.0F - 37F 32F 25 0% 0.00 in - 0% 0 mhos 14 - Yes - - -
03/22/2017 19:04 Wet 43.7F - 36F 32F 5 0% 0.10 in - 0% 0 mhos 3 - Yes - - -
03/22/2017 19:00 Wet 43.7F - 36F 32F 5 0% 0.10 in - 0% 0 mhos 2 - Yes - - -
03/22/2017 18:54 Wet 43.9F - 36F 32F 5 0% 0.00 in - 0% 0 mhos 2 - Yes - - -
Date/Time
(MDT)
Sf
Temp Chem Water Layer Surface Precipitation
Sfc Pvt Sub Frz Factor Pct Dpth DpthThk IcePct Cond Salin FI Type Intens Accum Rate
03/22/2017 18:45 Wet 44.6F - 36F 32F 5 0% 0.00 in - 0% 0 mhos 1 - Yes - - -
03/22/2017 18:44 Wet 44.6F - 36F 32F 5 0% 0.00 in - 0% 0 mhos 1 - Yes - - -
03/22/2017 18:34 Wet 45.1F - 36F 32F 5 0% 0.00 in - 0% 0 mhos 1 - None None - -
03/22/2017 18:30 Wet 45.7F - 36F 32F 5 0% 0.00 in - 0% 0 mhos 1 - Yes - - -
03/22/2017 18:24 Dry 46.4F - 36F - - - - - - 0 mhos 0 - None None - -
03/22/2017 18:14 Dry 47.1F - 36F - - - - - - 0 mhos 0 - None None - -
03/22/2017 18:04 Dry 47.7F - 36F - - - - - - 0 mhos 0 - None None - -
03/22/2017 18:00 Dry 47.8F - 36F - - - - - - 0 mhos 0 - None None - -
03/22/2017 17:54 Dry 48.6F - 36F - - - - - - 0 mhos 0 - None None - -
03/22/2017 17:45 Dry 49.3F - 36F - - - - - - 0 mhos 0 - None None - -
03/22/2017 17:44 Dry 49.5F - 36F - - - - - - 0 mhos 0 - None None - -
03/22/2017 17:34 Dry 50.7F - 36F - - - - - - 0 mhos 1 - None None - -
03/22/2017 17:30 Dry 50.9F - 36F - - - - - - 0 mhos 1 - None None - -
03/22/2017 17:24 Dry 51.4F - 36F - - - - - - 0 mhos 1 - Yes - - -
03/22/2017 17:15 Dry 52.3F - 36F - - - - - - 0 mhos 1 - Yes - - -
Date/Time
(MDT)
Sf
Temp Chem Water Layer Surface Precipitation
Sfc Pvt Sub Frz Factor Pct Dpth DpthThk IcePct Cond Salin FI Type Intens Accum Rate
03/22/2017 17:14 Dry 52.0F - 36F - - - - - - 0 mhos 1 - Yes - - -
03/22/2017 17:03 Dry 53.4F - 36F - - - - - - 0 mhos 2 - None None - -
03/22/2017 17:00 Dry 53.8F - 36F - - - - - - 0 mhos 2 - None None - -
03/22/2017 16:53 Dry 55.8F - 36F - - - - - - 0 mhos 3 - None None - -
03/22/2017 16:45 Dry 55.0F - 36F - - - - - - 0 mhos 5 - None None - -
03/22/2017 16:43 Dry 55.0F - 36F - - - - - - 0 mhos 6 - Yes - - -
03/22/2017 16:33 Dry 55.6F - 36F - - - - - - 0 mhos 10 - None None - -
03/22/2017 16:30 Dry 55.8F - 36F - - - - - - 0 mhos 9 - None None - -
03/22/2017 16:23 Dry 58.1F - 36F - - - - - - 0 mhos 12 - None None - -
03/22/2017 16:15 Dry 61.0F - 35F - - - - - - 0 mhos 15 - None None - -
03/22/2017 16:13 Dry 62.6F - 35F - - - - - - 0 mhos 15 - None None - -
03/22/2017 16:03 Dry 61.7F - 35F - - - - - - 0 mhos 20 - None None - -
03/22/2017 16:00 Wet 59.4F - 35F 32F 5 0% 0.00 in - 0% 0 mhos 22 - None None - -
03/22/2017 15:53 Wet 57.0F - 35F 32F 5 0% 0.00 in - 0% 0 mhos 23 - None None - -
03/22/2017 15:45 Wet 54.5F - 35F 32F 10 0% 0.00 in - 0% 0 mhos 31 - None None - -
Date/Time
(MDT)
Sf
Temp Chem Water Layer Surface Precipitation
Sfc Pvt Sub Frz Factor Pct Dpth DpthThk IcePct Cond Salin FI Type Intens Accum Rate
03/22/2017 15:43 Wet 55.4F - 35F 32F 5 0% 0.00 in - 0% 0 mhos 30 - None None - -
03/22/2017 15:33 Wet 57.6F - 35F 32F 10 0% 0.00 in - 0% 0 mhos 30 - None None - -
03/22/2017 15:30 Wet 56.5F - 35F 32F 10 0% 0.00 in - 0% 0 mhos 29 - None None - -
03/22/2017 15:23 Wet 55.6F - 35F 32F 10 0% 0.00 in - 0% 0 mhos 23 - None None - -
03/22/2017 15:15 Wet 54.1F - 35F 32F 20 0% 0.00 in - 0% 0 mhos 38 - None None - -
03/22/2017 15:13 Wet 55.0F - 35F 32F 15 0% 0.00 in - 0% 0 mhos 37 - None None - -
03/22/2017 15:03 Wet 53.6F - 35F 32F 10 0% 0.00 in - 0% 0 mhos 35 - Yes - - -
03/22/2017 15:00 Wet 53.6F - 35F 32F 10 0% 0.00 in - 0% 0 mhos 35 - Yes - - -
03/22/2017 14:53 Wet 55.0F - 35F 32F 20 0% 0.00 in - 0% 0 mhos 33 - None None - -
03/22/2017 14:45 Wet 53.8F - 35F 32F 15 0% 0.00 in - 0% 0 mhos 28 - Yes - - -
03/22/2017 14:43 Wet 53.4F - 35F 32F 20 0% 0.00 in - 0% 0 mhos 27 - None None - -
03/22/2017 14:33 Wet 53.4F - 35F 32F 25 0% 0.00 in - 0% 0 mhos 22 - Yes - - -
03/22/2017 14:30 Wet 53.6F - 35F 32F 25 0% 0.00 in - 0% 0 mhos 29 - Yes - - -
03/22/2017 14:23 Wet 56.3F - 35F 32F 25 0% 0.00 in - 0% 0 mhos 28 - Yes - - -
03/22/2017 14:15 Wet 52.7F - 35F 32F 40 0% 0.00 in - 0% 0 mhos 26 - None None - -
Date/Time
(MDT)
Sf
Temp Chem Water Layer Surface Precipitation
Sfc Pvt Sub Frz Factor Pct Dpth DpthThk IcePct Cond Salin FI Type Intens Accum Rate
03/22/2017 14:12 Wet 53.4F - 35F 32F 25 0% 0.00 in - 0% 0 mhos 25 - Yes - - -
Change End Date:

Copyright © 1998-2015 Vaisala, Inc.
All Rights Reserved
Send comments about the data to:
SCAN Web ® is a registered trademark of Vaisala, Inc.
SCAN Web Version 6.0